Weather Roundup
Issued by NWS Chicago, IL

Home | Current Version | Previous Version | Text Only | Print | Product List | Glossary On
Versions: 1 2 3 4 5 6 7 8 9 10 11 12 13 14 15 16 17 18 19 20 21 22 23 24 25 26 27 28 29 30 31 32 33 34 35 36 37 38 39 40 41 42 43 44 45 46 47 48 49 50
000
NZUS59 KLOT 261012
HRRLOT

CHICAGO AREA WEATHER ROUNDUP
NATIONAL WEATHER SERVICE CHICAGO/ROMEOVILLE IL
500 AM CDT TUE MAY 26 2015

NOTE: "FAIR" INDICATES FEW OR NO CLOUDS BELOW 12,000 FEET WITH NO
SIGNIFICANT WEATHER AND/OR OBSTRUCTIONS TO VISIBILITY.

* THESE STATIONS ARE NOT UNDER NWS QUALITY CONTROL. THEY ALSO MAY NOT
  REPORT WEATHER SUCH AS PRECIPITATION OR FOG.

ILZ005-006-012>014-019>023-261100-
NORTHEAST ILLINOIS

CITY           SKY/WX    TMP DP  RH WIND       PRES   REMARKS
OHARE          MOCLDY    65  63  93 S8        29.93R
MIDWAY         MOCLDY    70  66  87 S10G18    29.94R
AURORA         CLOUDY    66  63  90 SE8       29.93S FOG
LANSING*       CLOUDY    66  63  89 S9        29.96S
JOLIET*        CLOUDY    69  66  92 S6        29.94S
WAUKEGAN       PTCLDY    65  63  93 S7        29.92R
DUPAGE AIRPORT CLOUDY    67  64  90 S13       29.93R
WHEELING       CLEAR     67  64  90 S9        29.94S
KANKAKEE*      CLOUDY    67  65  92 S12G20    29.96S
MORRIS*        CLOUDY    66  64  94 S8        29.92F
LEWIS AIRPORT* CLOUDY    67  64  91 S15       29.94S
NORTHERLY IS     N/A     68  63  84 S16         N/A
$$

WIZ051-052-058>065-066-070>072-261100-
SOUTHEAST WISCONSIN

CITY           SKY/WX    TMP DP  RH WIND       PRES   REMARKS
MILWAUKEE      CLEAR     65  60  84 S9        29.90S
KENOSHA*       MOCLDY    68  64  87 SW9       29.92R
RACINE*        PTCLDY    65  60  84 S6        29.93R
BURLINGTON     PTCLDY    63  62  96 S6        29.91S
WAUKESHA         N/A     63  61  94 S7        29.91R
WEST BEND      CLEAR     64  61  88 S3        29.89S
$$

INZ001>003-010>013-019-020-261100-
NORTHWEST INDIANA

CITY           SKY/WX    TMP DP  RH WIND       PRES   REMARKS
GARY*          MOCLDY    68  66  94 S13       29.96R
MICHIGAN CITY* NOT AVBL
RENSSELAER*    NOT AVBL
VALPARAISO     CLOUDY    66  64  93 S8        29.99R
$$

LMZ740>746-261100-
SOUTHERN LAKE MICHIGAN

STATION/POSITION TIME  SKY/WX   TEMP WIND        PRES    VSBY
                                AIR  DIR/SP/G
                 (UTC)          (F)  (DEG/KT/KT) (MB)    (MI)
HARRISON CRIB    0900            68  190/ 15/ 17   N/A
BURNHAM HARBOR   1000            68  190/ 15       N/A
CALUMET HARBOR   0900            68  180/  8/ 11   N/A
BURNS HARBOR     0900            67  180/  9/ 15 1014.9R
MICHIGAN CITY    0900            67  140/  8/ 12   N/A
$$

ABBREVIATIONS USED IN REMARKS
   TC - TEMPERATURE IN CELSIUS
  WCI - WIND CHILL INDEX
   HX - HEAT INDEX
  VSB - VISIBILITY
$$



USA.gov is the U.S. government's official web portal to all federal, state and local government web resources and services.